TITAN 3A TRANSTAGE R/B, 1001

Orbit data source: Space-Track

TITAN 3A TRANSTAGE R/B, 1001 is space debris in LEO originally from a launch on Thu, 11 Feb 1965 UTC via a TITAN IIIA launch vehicle from the Air Force Eastern Test Range (AFETR). Debris objects in space refer to the collection of defunct objects orbiting the Earth. Examples of debris include non-operational satellites, rocket bodies, and fragments generated from explosions, collisions, or faulty payload assembly.

Loading next visibility...
TITAN 3A TRANSTAGE R/B details
Identifier
1001, 1965-008A
Orbit
LEO
Last TLE update19 hours ago
Origin
Flag of USUSAF SSD (US)
ManufacturerMartin Marietta
MissionSpacecraft
Bus & MotorTRUSS, Unknown motor
Mass336 kg wet, 336 kg dry
Launch date (UTC)
1965-02-11 (60 years ago)
Launch vehicle
TITAN IIIA
Launch site
Air Force Eastern Test Range (AFETR)
Object type
Payload
Rocket body
Debris
Shape & HBRCyl + 2 Nozzle, 3.1 m
Radar Cross Section8.643 m², Large (>1 m²)

Expand to show TLE details & history

TLE from 19 hours ago
0 TITAN 3A TRANSTAGE R/B
1 01001U 65008A   25037.28620594  .00000029  00000-0  26576-2 0  9993
2 01001  32.1417 209.0076 0018421 265.2601  94.5793  9.90723290172293
Epoch: 2025-02-06T06:52Z
Definitive object data (Epoch: 2025-02-06T06:52:08.193Z)
Latitude-0°
Longitude-30.69151°
Altitude2,779.489 km
Speed6.599 km/s
True Right ascension13h 56m 01s
True Declination0° 00' 00"
Sunlit
Object was in daylight at TLE epoch
Visualization TLE readout
Latitude-6.49075°
Longitude-42.99208°
Altitude2,776.135 km
Speed6.602 km/s
Apparent Right ascension14h 12m 11s
Apparent Declination-21° 33' 59"
Sunlit
Object is in daylight
Visualization observer readout
Local Sidereal Time04:18:10
Azimuth64.965° ENE
Elevation-57.573°
Doppler factor1
Orbital elements
Apogee altitude2,798.8 km
Perigee altitude2,765.052 km
Semi-major axis9,160.063 km
Eccentricity0.0018421
Inclination32.1417°
RAAN209.0076°
Arg. of periapsis265.2601°
True anomaly94.78968°
Mean anomaly94.5793°
Eccentric anomaly94.68449°
Mean motion2.47569 °/min
BSTAR0.0026576
Orbital period145.41 mins
Loading maneuver chart data...
Loading historical data...
Loading historical data...
Loading historical data...
Loading historical data...
Loading historical data...
Loading historical data...
Loading historical data...
Other satellites on launch #8 in the year 1965 (1965-02-11 UTC)

TITAN 3A TRANSTAGE R/B Visibility forecast

Observer location: undefined°, undefined

Span
Click to sort rows by Start time (UTC) header in descending order
Start Az.
Max El. time (UTC)
Max El. Az.
Max El.
End time (UTC)
End Az.
19 mins2025-02-07 11:57:48.847Z178.611° S2025-02-07 12:06:48.847Z141.8° SSE19.179°2025-02-07 12:16:48.847Z100.662° ESE
28 mins2025-02-07 14:29:48.847Z223.303° SW2025-02-07 14:43:48.847Z151.922° SSE36.955°2025-02-07 14:57:48.847Z88.693° E
30 mins2025-02-07 17:05:48.847Z255.025° W2025-02-07 17:20:48.847Z173.823° S42.283°2025-02-07 17:35:48.847Z101.652° ESE
29 mins2025-02-07 19:43:48.847Z269.832° W2025-02-07 19:57:48.847Z201.224° SSW38.321°2025-02-07 20:12:48.847Z130.25° SE
21 mins2025-02-07 22:23:48.847Z261.717° W2025-02-07 22:33:48.847Z219.695° SW21.961°2025-02-07 22:44:48.847Z173.483° S
|